Tracking 33200 objects as of 18-Feb-2026
HD Live streaming from Space Station
objects crossing your sky now

STARLINK-5598

Track STARLINK-5598 now!
10-day predictions
STARLINK-5598 is classified as:


NORAD ID: 55421
Int'l Code: 2023-014AG
Perigee: 576.8 km
Apogee: 581.6 km
Inclination: 70.0 °
Period: 96.1 minutes
Semi major axis: 6950 km
RCS: Unknown
Launch date: January 31, 2023
Source: United States (US)
Launch site: AIR FORCE WESTERN TEST RANGE (AFWTR)
Your satellite tracking list
Your tracking list is empty




NASA's NSSDC Master Catalog

Two Line Element Set (TLE):
1 55421U 23014AG  26048.66892626  .00000931  00000-0  85801-4 0  9991
2 55421  70.0003 134.9243 0003433 276.2813  83.7955 14.98334642168564
Source of the keplerian elements: AFSPC